Terug naar catalogus

CZ-6A DEB

ActiefPO
NORAD 64628·DEBRIS·🇨🇳 China

Gelanceerd Aug 6, 2024 vanaf Taiyuan Satellite Launch Center

Loading…

Volgende Passages (komende 24 uur)

TLE

VersSource: Space-Track

Epoch: Sep 12, 2026, 10:59 UTC

1 64628U 24140ADS 26255.45809308  .00235853  00000-0  30173-2 0  9996
2 64628  89.0077 257.2801 0036476 116.1425 244.3601 15.57669805109013

Volg CZ-6A DEB in realtime met AllMySat

Download on the App Store